Tracking 35030 objects as of 9-Aug-2026
HD Live streaming from Space Station
objects crossing your sky now

COSMOS 57 DEB


COSMOS 57 DEB is no longer on orbit


NORAD ID: 1164
Int'l Code: 1965-012BU
Launch date: February 22, 1965
Source: Commonwealth of Independent States (former USSR) (CIS)
Launch site: TYURATAM MISSILE AND SPACE COMPLEX (TTMTR)
Decay date: 1965-03-13

Note: This is SATELLITE DEBRIS
Your satellite tracking list
Your tracking list is empty




NASA's NSSDC Master Catalog

Two Line Element Set (TLE):
1 01164U 65012 BU 65065.06286951  .00352931 +34293-3 +00000-0 0  9992
2 01164 064.6942 256.6056 0084710 089.8136 271.1622 16.11620074001897
Source of the keplerian elements: AFSPC